EW9592 Weather Reports


Display with metric or nautical units.
time (UTC)temp
F
wind
direction
speed
MPH
gust
MPH
rain 1hr
in
rain 24hr
in
rain mn
in
humidity
%
barometer
mb
20260905213004 89 15 0.0 0.0 0.00 1.00 1.00 78 1011.2
20260905211504 88 15 0.0 0.0 0.00 1.00 1.00 77 1011.2
20260905210003 89 15 0.0 0.0 0.00 1.00 1.00 72 1011.3
20260905204502 89 15 0.0 1.0 0.00 1.00 1.00 71 1011.5
20260905203102 90 15 0.0 1.0 0.00 1.00 1.00 77 1011.7
20260905201558 89 146 0.0 1.0 0.00 1.00 1.00 69 1011.8
20260905200058 90 146 0.0 1.0 0.00 1.00 1.00 72 1012.0
20260905194552 89 147 0.0 0.0 0.00 1.00 1.00 65 1012.2
20260905193050 89 136 0.0 2.0 0.00 1.00 1.00 72 1012.4
20260905191549 89 187 0.0 1.0 0.00 1.00 1.00 64 1012.7
20260905190054 89 130 0.0 1.0 0.00 1.00 1.00 65 1012.8
20260905184556 89 105 0.0 4.0 0.00 1.00 1.00 67 1013.0
20260905183048 88 276 0.0 2.0 0.00 1.00 1.00 71 1013.1
20260905181544 88 229 0.0 1.0 0.00 1.00 1.00 64 1013.4
20260905180041 88 121 0.0 1.0 0.00 1.00 1.00 67 1013.6
20260905174539 87 229 0.0 1.0 0.00 1.00 1.00 71 1013.6
20260905173037 86 213 0.0 1.0 0.00 1.00 1.00 67 1013.8
20260905171538 86 248 0.0 1.0 0.00 1.00 1.00 69 1013.9
20260905170040 87 236 0.0 3.0 0.00 1.00 1.00 69 1014.1
20260905164537 86 108 0.0 1.0 0.00 1.00 1.00 72 1014.5
20260905163030 85 109 0.0 1.0 0.00 1.00 1.00 68 1014.8
20260905161527 84 129 0.0 4.0 0.00 1.00 1.00 75 1014.5
20260905160024 83 138 0.0 2.0 0.00 1.00 1.00 79 1014.6
20260905154520 81 243 0.0 1.0 0.00 1.00 1.00 78 1014.6
20260905153016 79 246 0.0 2.0 0.00 1.00 1.00 85 1014.5
20260905151513 78 166 0.0 3.0 0.00 1.00 1.00 85 1014.7
20260905150011 77 126 0.0 2.0 0.00 1.00 1.00 87 1014.6
20260905144511 75 219 0.0 3.0 0.00 1.00 1.00 88 1014.9
20260905143018 74 249 0.0 2.0 0.00 1.00 1.00 90 1015.0
20260905141505 73 162 0.0 3.0 0.00 1.00 1.00 91 1015.5
20260905140005 72 233 0.0 2.0 0.00 1.00 1.00 91 1015.4
20260905134509 71 262 0.0 1.0 0.00 1.00 1.00 92 1015.4
20260905133002 72 278 0.0 1.0 0.00 1.00 1.00 92 1015.7
20260905131501 72 282 0.0 0.0 0.00 1.00 1.00 92 1015.9
20260905130001 71 209 0.0 1.0 0.01 1.00 1.00 92 1016.2
20260905124559 71 270 0.0 2.0 0.21 1.00 1.00 92 1015.8
20260905123058 72 278 0.0 2.0 0.33 1.00 1.00 92 1015.7
20260905121555 72 212 0.0 3.0 0.33 1.00 1.00 92 1015.6
20260905120105 72 121 0.0 1.0 0.32 0.99 0.99 92 1014.1
20260905114552 72 298 0.0 2.0 0.10 0.77 0.77 92 1014.7
20260905113051 72 154 0.0 1.0 0.00 0.67 0.67 92 1014.7
20260905111607 72 224 0.0 0.0 0.00 0.67 0.67 92 1014.5
20260905110055 72 260 0.0 0.0 0.00 0.67 0.67 92 1014.5
20260905104549 72 260 0.0 1.0 0.00 0.67 0.67 92 1014.1
20260905103048 73 221 0.0 1.0 0.01 0.67 0.67 92 1013.9
20260905101549 73 215 0.0 0.0 0.52 0.67 0.67 92 1013.5
20260905100047 73 215 0.0 0.0 0.67 0.67 0.67 91 1013.2
20260905094546 73 214 0.0 0.0 0.67 0.67 0.67 91 1013.1
20260905093044 73 127 0.0 6.0 0.66 0.66 0.66 91 1013.4
20260905091540 75 8 2.0 6.0 0.12 0.12 0.12 91 1014.5
20260905090039 75 45 0.0 0.0 0.00 0.00 0.00 91 1013.0
20260905084538 75 45 0.0 0.0 0.00 0.00 0.00 91 1013.3
20260905083037 75 47 0.0 1.0 0.00 0.00 0.00 91 1012.8
20260905081538 75 311 0.0 0.0 0.00 0.00 0.00 91 1013.0
20260905080040 75 310 0.0 0.0 0.00 0.00 0.00 91 1012.6
20260905074540 75 310 0.0 0.0 0.00 0.00 0.00 91 1012.9
20260905073046 75 310 0.0 0.0 0.00 0.00 0.00 91 1013.1
20260905071540 75 311 0.0 0.0 0.00 0.00 0.00 91 1013.2
20260905070030 75 311 0.0 0.0 0.00 0.00 0.00 91 1013.4
20260905064529 75 310 0.0 0.0 0.00 0.00 0.00 91 1013.4
20260905063027 75 311 0.0 0.0 0.00 0.00 0.00 91 1013.7
20260905061529 76 311 0.0 0.0 0.00 0.00 0.00 91 1013.9
20260905060025 76 311 0.0 0.0 0.00 0.00 0.00 91 1014.0
20260905054538 76 311 0.0 0.0 0.00 0.00 0.00 91 1014.0
20260905053019 76 311 0.0 0.0 0.00 0.00 0.00 91 1014.0
20260905051520 76 311 0.0 0.0 0.00 0.00 0.00 91 1014.1
20260905050018 77 311 0.0 0.0 0.00 0.00 0.00 91 1014.0
20260905044518 77 311 0.0 0.0 0.00 0.00 0.00 91 1014.3
20260905043018 77 311 0.0 0.0 0.00 0.00 0.00 91 1014.3
20260905041513 77 311 0.0 0.0 0.00 0.00 0.00 91 1014.4
20260905040015 77 311 0.0 0.0 0.00 0.00 0.00 91 1014.3
20260905034510 78 311 0.0 0.0 0.00 0.00 0.00 91 1014.3
20260905033009 78 311 0.0 0.0 0.00 0.00 0.00 91 1014.3
20260905031509 78 311 0.0 0.0 0.00 0.00 0.00 91 1014.4
20260905030009 78 311 0.0 0.0 0.00 0.00 0.00 90 1014.4
20260905024512 78 311 0.0 0.0 0.00 0.00 0.00 90 1014.4
20260905023016 79 311 0.0 0.0 0.00 0.00 0.00 90 1014.2
20260905021507 79 311 0.0 0.0 0.00 0.00 0.00 90 1014.2
20260905020007 79 311 0.0 0.0 0.00 0.00 0.00 90 1014.2
20260905014507 79 311 0.0 0.0 0.00 0.00 0.00 90 1014.1
20260905013006 80 311 0.0 0.0 0.00 0.00 0.00 90 1013.9
20260905011505 80 311 0.0 0.0 0.00 0.00 0.00 89 1013.7
20260905010005 81 311 0.0 0.0 0.00 0.00 0.00 89 1013.6
20260905004507 82 311 0.0 0.0 0.00 0.00 0.00 88 1013.3
20260905003004 82 311 0.0 0.0 0.00 0.00 0.00 88 1013.3
20260905001503 83 311 0.0 0.0 0.00 0.00 0.00 87 1013.1
20260905000004 84 311 0.0 0.0 0.00 0.00 0.00 87 1013.1
20260904234505 85 311 0.0 0.0 0.00 0.00 0.00 85 1013.0
20260904233002 86 311 0.0 0.0 0.00 0.00 0.00 84 1013.1
20260904231500 86 311 0.0 0.0 0.00 0.00 0.00 83 1013.2
20260904224607 88 311 0.0 0.0 0.00 0.00 0.00 78 1013.5
20260904223057 89 311 0.0 0.0 0.00 0.00 0.00 76 1013.7
20260904221559 90 311 0.0 0.0 0.00 0.00 0.00 76 1013.7
20260904220056 91 311 0.0 0.0 0.00 0.00 0.00 72 1013.7
20260904214554 92 311 0.0 1.0 0.00 0.00 0.00 72 1013.7